Flag for Japan Weather past 2 weeks in Fukuoka, Japan

Now
90 °F

Broken clouds.


Feels Like: 100 °F
Forecast: 79 / 88 °F
Wind: 6 mph from North

Location: Fukuoka Airport

Current Time: Jul 28, 2015 at 1:13:55 PM

Latest Report: Jul 28, 2015 at 12:30 PM


Visibility: N/A

Pressure: 29.77 "Hg

Humidity: 63%

Dew point: 75 °F

Location of FukuokaLocation

Historic Weather in Fukuoka — Graph

°F

Fukuoka temperature yesterday

Maximum temperature yesterday: 90 °F (at 12:00 PM)
Minimum temperature yesterday: 77 °F (at 12:00 AM)
Average temperature yesterday: 83 °F

Past Weeks' High & Low Weather Summary

 TemperatureHumidityPressure
High93 °F (Jul 15, 3:30 PM)94% (Jul 14, 6:30 AM)29.89 "Hg (Jul 14, 6:30 AM)
Low66 °F (Jul 17, 3:30 AM)32% (Jul 15, 4:30 PM)29.45 "Hg (Jul 16, 5:00 PM)
Average79 °F78%29.73 "Hg
* Reported Jul 13 12:00 Noon — Jul 28 12:00 Noon, Fukuoka, Weather by CustomWeather, © 2015

Note: Actual official high and low records may vary slightly from our data, if they occured in-between our weather recording intervals... More about our weather records

Advertising

Fukuoka weather history for previous 24 hours

 ConditionsComfort  
Time TempWeatherWind HumidityBarometerVisibility
12:00 PM
Tue, Jul 28
88 °FBroken clouds.6 mph66%29.77 "HgN/A
11:30 AM86 °FBroken clouds.6 mph70%29.77 "HgN/A
11:00 AM88 °FBroken clouds.5 mph66%29.80 "HgN/A
10:30 AM86 °FBroken clouds.5 mph70%29.80 "HgN/A
10:00 AM86 °FBroken clouds.6 mph70%29.80 "HgN/A
9:30 AM86 °FBroken clouds.2 mph70%29.80 "HgN/A
9:00 AM86 °FPartly sunny.6 mph75%29.80 "HgN/A
8:30 AM86 °FBroken clouds.8 mph70%29.80 "HgN/A
8:00 AM84 °FBroken clouds.8 mph79%29.80 "HgN/A
7:30 AM82 °FBroken clouds.7 mph84%29.80 "HgN/A
7:00 AM82 °FBroken clouds.6 mph84%29.80 "HgN/A
6:30 AM81 °FSprinkles. Broken clouds.8 mph89%29.80 "HgN/A
6:00 AM81 °FBroken clouds.8 mph84%29.80 "HgN/A
5:30 AM81 °FBroken clouds.9 mph84%29.80 "HgN/A
5:00 AM81 °FPartly cloudy.9 mph84%29.80 "HgN/A
4:30 AM81 °FPartly cloudy.9 mph84%29.80 "HgN/A
4:00 AM81 °FPassing clouds.8 mph84%29.77 "HgN/A
3:30 AM81 °FPassing clouds.9 mph84%29.77 "HgN/A
3:00 AM81 °FPartly cloudy.8 mph84%29.77 "HgN/A
2:30 AM81 °FPartly cloudy.7 mph84%29.80 "HgN/A
2:00 AM81 °FPartly cloudy.6 mph84%29.80 "HgN/A
1:30 AM81 °FClear.9 mph84%29.80 "Hg10 mi
1:00 AM81 °FClear.12 mph84%29.80 "Hg10 mi
12:30 AM81 °FClear.12 mph84%29.80 "Hg10 mi
12:00 AM81 °FClear.10 mph84%29.80 "Hg10 mi
11:30 PM
Mon, Jul 27
82 °FClear.10 mph79%29.80 "Hg10 mi
11:00 PM82 °FPassing clouds.10 mph79%29.80 "HgN/A
10:30 PM82 °FPassing clouds.6 mph79%29.80 "HgN/A
10:00 PM82 °FPassing clouds.3 mph79%29.80 "HgN/A
9:30 PM84 °FPassing clouds.5 mph79%29.80 "HgN/A
9:00 PM84 °FPassing clouds.6 mph79%29.80 "HgN/A
8:30 PM84 °FPartly cloudy.5 mph74%29.80 "HgN/A
8:00 PM86 °FPassing clouds.3 mph70%29.77 "HgN/A
7:30 PM86 °FPassing clouds.6 mph70%29.77 "HgN/A
7:00 PM86 °FBroken clouds.10 mph70%29.77 "HgN/A
6:30 PM88 °FBroken clouds.6 mph66%29.77 "HgN/A
6:00 PM88 °FBroken clouds.7 mph66%29.77 "HgN/A
5:30 PM88 °FBroken clouds.6 mph66%29.77 "HgN/A
5:00 PM86 °FBroken clouds.5 mph66%29.77 "HgN/A
4:30 PM86 °FPartly sunny.5 mph70%29.77 "HgN/A
4:00 PM86 °FPartly sunny.8 mph70%29.77 "HgN/A
3:30 PM86 °FPartly sunny.10 mph66%29.77 "HgN/A
3:00 PM88 °FPartly sunny.9 mph62%29.77 "HgN/A
2:30 PM90 °FScattered clouds.7 mph55%29.77 "HgN/A
2:00 PM90 °FBroken clouds.7 mph59%29.77 "HgN/A
1:30 PM90 °FBroken clouds.8 mph63%29.77 "HgN/A
1:00 PM88 °FBroken clouds.8 mph59%29.77 "HgN/A
Weather by CustomWeather, © 2015

See weather overviewHow to use our weather pages